Location: Ebendorf
(52.1827°N, 11.5706°E)
Time: 04:47:54
(UTC+00:00)

Daily predictions for brighter satellites

Satellite Brightness Start Highest point End
(mag) Time Altitude Azimuth Time Altitude Azimuth Time Altitude Azimuth
Cosmos 1726 2.0 00:02:40 10° N 00:06:24 82° E 00:07:33 42° SSE
Lacrosse 4 Rocket 3.9 00:05:50 10° SE 00:07:22 12° ESE 00:08:54 10° E
TSX-5 4.1 00:04:14 10° NNW 00:07:30 56° NE 00:10:26 16° SE
Cosmos 1459 Rocket 4.3 00:01:34 10° N 00:07:48 63° ENE 00:12:30 18° SSE
ISS -3.9 00:04:38 10° W 00:08:02 78° S 00:11:24 10° ESE
Cosmos 614 Rocket 4.2 00:06:34 10° NNW 00:11:40 67° ENE 00:15:56 15° SE
Cosmos 2251 Rocket 3.5 00:08:42 10° NNW 00:13:59 86° ENE 00:17:37 21° SSE
Cosmos 1605 Rocket 4.4 00:08:45 10° NNW 00:14:47 52° W 00:18:04 27° SSW
CZ-4 R/B 4.0 00:10:46 10° NNE 00:15:38 67° ESE 00:17:53 31° S
Thor Agena Rocket 4.5 00:11:07 10° N 00:16:01 41° WNW 00:19:10 21° WSW
SeaSat 1 2.4 00:11:04 10° NNE 00:16:02 89° NW 00:18:33 30° SSW
Cosmos 1470 2.7 00:12:19 10° NNW 00:16:14 71° W 00:17:30 41° S
Cosmos 371 Rocket 4.3 00:15:28 23° SSE 00:17:47 37° ESE 00:22:16 10° NE
PSLV R/B 4.1 00:14:45 10° N 00:18:59 49° WNW 00:20:50 29° SW
Meteor 1-21 4.3 00:17:59 27° S 00:21:14 76° E 00:27:02 10° NNE
Cosmos 1455 Rocket 3.7 00:17:19 10° N 00:21:33 50° ENE 00:24:34 18° SE
Okean 2 Rocket 4.5 00:20:03 10° NNW 00:23:35 24° W 00:24:51 21° WSW
Cosmos 1656 4.2 00:20:52 26° S 00:23:39 48° ESE 00:28:57 10° NE
Cosmos 2173 Rocket 4.0 00:18:49 10° N 00:25:02 82° E 00:29:35 20° SSE
Helios 1A 3.1 00:25:32 35° SSW 00:27:01 57° W 00:31:08 10° NNW
Cosmos 1626 4.4 00:27:34 11° SE 00:30:03 19° E 00:32:40 10° NE
Cosmos 2061 Rocket 4.4 00:25:41 10° N 00:31:58 62° ENE 00:37:59 11° SSE
Timation 2 Rocket 3.8 00:26:04 10° NW 00:32:03 76° WSW 00:37:15 14° SSE
Cosmos 1842 3.8 00:31:13 31° SW 00:32:35 45° WNW 00:36:21 10° N
Cosmos 1400 Rocket 3.8 00:29:35 10° NNW 00:33:14 31° W 00:34:16 27° WSW
APEX 4.0 00:29:40 10° NNW 00:33:55 68° NE 00:39:15 10° SE
Cosmos 1758 3.4 00:32:12 10° NNW 00:36:17 66° W 00:37:58 33° S
USA 215 3.6 00:31:25 12° SSE 00:37:09 42° SW 00:43:19 10° WNW
Cosmos 1315 Rocket 2.7 00:36:54 10° NNW 00:40:53 73° W 00:42:46 30° S
Lacrosse 5 1.8 00:38:07 21° WSW 00:41:38 90° ENE 00:46:45 10° ENE
USA 281 3.2 00:37:45 15° SSE 00:43:17 69° WSW 00:49:53 10° NNW
KORONAS-FOTON 4.5 00:45:43 23° SSE 00:47:53 50° E 00:51:42 10° NNE
MOZ.5/SAFIR/RUBIN 5/SL-8 4.0 00:47:34 27° SSW 00:49:52 54° W 00:54:27 10° NNW
Cosmos 2219 3.3 00:45:36 10° NW 00:51:11 56° WSW 00:55:16 18° S
ADEOS II 3.4 00:46:55 10° NNE 00:51:40 33° E 00:56:15 11° SSE
COSMOS 2455 3.5 00:49:59 10° NW 00:55:21 35° WSW 00:58:17 22° SSW
Cosmos 2100 Rocket 4.1 00:49:16 10° NNW 00:55:30 62° W 00:59:51 20° SSW
Cosmos 2263 Rocket 3.6 00:51:14 10° NNW 00:56:33 40° NE 01:01:53 10° ESE
Okean 2 4.2 00:54:39 24° SW 00:56:35 39° WNW 01:00:32 10° N
USA 276 2.3 00:56:16 39° SW 00:57:01 50° S 01:00:07 10° E
Cosmos 1802 Rocket 3.9 00:52:36 10° NNW 00:58:45 75° W 01:03:30 18° S
Cosmos 1975 Rocket 3.0 00:57:07 25° S 00:59:34 89° ESE 01:03:56 10° N
OPS 6432 4.5 00:59:26 27° SW 01:01:27 89° SE 01:04:41 10° NE
Cosmos 1707 3.1 00:59:59 28° SW 01:01:42 49° WNW 01:05:27 10° N
Timation 1 Rocket 4.3 00:57:45 10° NW 01:03:42 68° WSW 01:09:36 10° SSE
CZ-2D R/B 2.2 00:58:24 10° NNE 01:03:52 77° ESE 01:07:39 20° S
Cosmos 407 Rocket 3.5 00:59:15 10° NNW 01:04:37 87° WSW 01:10:00 10° SSE
NPP 3.9 00:59:36 10° NNE 01:05:00 67° ESE 01:09:03 18° S
Cosmos 2123 Rocket 4.1 01:00:49 17° S 01:05:40 75° E 01:11:54 10° NNE
Resurs 1-4 Rocket 2.1 01:02:06 10° NNE 01:07:24 84° ESE 01:11:09 20° SSW
Aureole 2 Rocket 4.5 01:05:50 10° N 01:07:59 21° NE 01:10:09 10° ESE
Cosmos 1908 3.2 01:08:18 10° NNW 01:12:12 69° W 01:14:41 21° S
UNK 3.9 01:13:02 19° S 01:16:10 57° W 01:20:42 10° NNW
Cosmos 304 Rocket 3.9 01:16:41 20° S 01:20:01 69° ESE 01:24:49 10° NNE
Cosmos 1025 Rocket 3.1 01:17:41 18° S 01:20:50 79° E 01:25:14 10° NNE
Meteor 1-28 Rocket 3.8 01:18:43 10° SSE 01:22:20 56° ENE 01:26:01 10° N
Helios 1B rocket 2.5 01:20:09 10° NNE 01:24:17 74° WNW 01:27:03 20° SSW
ATLAS CENTAUR R/B 3.8 01:22:30 10° WNW 01:25:06 17° NNW 01:27:47 10° NNE
Meteor 1-29 3.2 01:21:50 10° NNE 01:25:13 65° ESE 01:27:34 19° S
Cosmos 1697 Rocket 2.8 01:21:23 18° SSW 01:25:34 72° ESE 01:31:12 10° NNE
Cosmos 2360 4.5 01:24:07 17° SSW 01:28:35 66° ESE 01:34:17 10° NE
ARGOS Delta rocket 3.8 01:26:50 10° NNE 01:31:30 86° ESE 01:35:37 15° SSW
Meteor 2-5 Rocket 4.5 01:26:58 10° SSE 01:32:25 50° E 01:37:48 10° NNE
Landsat 4 3.7 01:29:15 10° NNE 01:33:03 81° ESE 01:35:53 17° SSW
Cosmos 1954 Rocket 4.1 01:28:01 10° NNW 01:33:20 81° ENE 01:38:39 10° SSE
Cosmos 1953 3.1 01:30:39 10° NNW 01:34:18 35° W 01:36:36 19° SSW
SL-16 R/B 3.0 01:31:27 15° SSW 01:36:28 44° W 01:42:27 10° NNW
Cosmos 1980 Rocket 2.8 01:33:37 13° S 01:38:36 52° ESE 01:44:05 10° NE
Cosmos 1726 4.5 01:40:30 10° WNW 01:40:55 10° W 01:41:19 10° W
Cosmos 2056 Rocket 3.8 01:37:18 13° S 01:41:46 60° ESE 01:46:51 10° NNE
Cosmos 405 3.7 01:39:31 10° N 01:43:00 54° ENE 01:46:26 10° SSE
ISS -3.1 01:41:32 10° W 01:44:37 33° SSW 01:47:42 10° SE
Lacrosse 4 Rocket 1.6 01:41:50 17° SSW 01:45:17 73° ESE 01:49:42 10° NE
Cosmos 2227 Rocket 3.2 01:41:55 10° NW 01:46:30 26° WSW 01:50:10 14° SSW
Cosmos 2297 Rocket 3.6 01:44:51 10° NW 01:48:50 20° W 01:51:41 14° SW
Cosmos 1544 Rocket 4.2 01:45:15 10° NNW 01:49:20 38° W 01:52:44 14° SSW
Cosmos 1725 Rocket 4.4 01:44:33 10° NNW 01:50:28 45° W 01:56:05 11° SSW
Cosmos 1674 3.6 01:48:04 16° SW 01:50:38 35° WNW 01:54:11 10° N
SeaSat 1 4.2 01:49:10 10° NNE 01:53:03 24° NW 01:56:56 10° W
Cosmos 1371 Rocket 4.0 01:50:00 13° SSW 01:54:40 84° ESE 01:59:54 10° NNE
Cosmos 2228 3.4 01:50:45 10° N 01:55:01 65° ENE 01:59:18 10° SSE
IKONOS-2 4.5 01:51:24 10° S 01:55:40 78° WSW 01:59:57 10° NNW
Cosmos 1606 Rocket 4.2 01:51:52 10° N 01:56:13 57° ENE 02:00:35 10° SSE
SL-08 R/B 4.1 01:51:47 10° SE 01:56:20 54° ENE 02:00:51 10° N
Cosmos 1140 Rocket 4.0 01:51:56 10° NW 01:56:47 40° WSW 02:01:37 10° S
Cosmos 371 Rocket 4.2 01:54:07 13° WSW 01:58:12 38° NW 02:02:48 10° NNE
Cosmos 2233 Rocket 4.1 01:52:28 10° NNW 01:58:34 58° W 02:04:33 10° S
IRS-1D 3.7 01:55:13 10° NNE 02:00:36 89° NW 02:05:58 10° SSW
Cosmos 2369 3.8 01:56:01 13° SSW 02:01:12 86° WNW 02:06:59 10° NNE
Cosmos 2278 4.0 01:56:42 10° SSW 02:02:16 67° ESE 02:07:56 10° NE
Cosmos 2082 4.4 01:57:48 10° NW 02:02:55 35° WSW 02:08:02 10° S
Cosmos 332 Rocket 4.3 01:59:13 13° SW 02:03:25 50° WNW 02:08:10 10° NNE
Cosmos 1626 2.7 02:02:05 14° SW 02:04:59 41° WNW 02:08:32 10° N
BREEZE-M DEB (TANK) 3.6 02:05:03 11° SSW 02:06:54 16° SSE 02:08:30 10° ESE
SL-14 R/B 3.4 02:04:32 12° SSW 02:08:07 60° WNW 02:12:05 10° N
CZ-4C R/B 3.5 02:03:59 10° S 02:08:11 62° WSW 02:12:13 10° NNW
IDEFIX/ARIANE 42P 2.8 02:06:03 10° NNE 02:11:21 76° ESE 02:16:37 10° S
ADEOS Rocket 3.7 02:05:16 10° S 02:12:45 60° W 02:20:30 10° NNW
Cosmos 1536 Rocket 3.8 02:08:52 11° SSW 02:13:06 57° WNW 02:17:31 10° N
SL-16 R/B 3.7 02:10:18 10° SSE 02:15:14 32° ESE 02:20:11 10° NE
Cosmos 389 Rocket 4.0 02:13:55 10° N 02:17:16 39° ENE 02:20:33 10° SE
GP-B 3.6 02:13:41 10° N 02:17:54 44° W 02:22:07 10° SSW
Cosmos 1300 3.4 02:15:49 10° NNW 02:19:21 37° W 02:22:53 10° SSW
MSX 4.2 02:16:01 10° NNE 02:21:49 69° ESE 02:27:34 10° S
Lacrosse 5 2.7 02:20:01 10° W 02:24:59 50° N 02:29:58 10° ENE
ARIANE 5 R/B 3.0 02:20:50 10° NNE 02:25:58 62° ESE 02:31:00 10° S
Meteor 2-10 Rocket 3.7 02:21:56 10° NNW 02:27:41 74° W 02:33:12 10° S
Cosmos 2285 Rocket 4.2 02:24:14 10° SSW 02:30:39 73° WNW 02:37:08 10° NNE
ADEOS II 2.6 02:26:30 10° N 02:31:31 46° WNW 02:36:29 10° SW
CZ-4B R/B 3.8 02:27:18 10° NNE 02:32:19 73° ESE 02:37:26 10° S
USA 276 2.3 02:29:57 10° W 02:33:04 52° S 02:36:11 10° ESE
CENTAUR R/B 4.2 02:29:27 10° SSE 02:34:24 28° ESE 02:40:05 10° ENE
Cosmos 1455 2.5 02:31:00 10° N 02:34:51 72° E 02:38:41 10° SSE
IRS-P3 4.2 02:30:57 10° NNE 02:36:20 90° ESE 02:41:41 10° SSW
Cosmos 1420 Rocket 4.0 02:31:20 10° SSW 02:36:32 79° WNW 02:41:45 10° NNE
CZ-2D R/B 4.2 02:33:15 10° NNE 02:37:38 59° ESE 02:42:00 10° S
Cosmos 2263 Rocket 2.5 02:35:13 10° NW 02:40:38 48° WSW 02:46:03 10° S
Cosmos 2322 Rocket 3.5 02:36:41 10° S 02:41:53 39° ESE 02:47:09 10° NE
Cosmos 292 Rocket 4.0 02:37:12 10° SSW 02:42:02 75° ESE 02:46:55 10° NNE
Cosmos 1844 Rocket 3.7 02:37:04 10° NNW 02:42:36 53° NE 02:48:08 10° SE
